Алакит

Россия / Республика Саха (Якутия)     66°06′06″N   110°32′53″E
темп.,
°C
ветер,
м/с
пор.,
м/с
влажн.,
%
обл.,
%
осадки,
мм/ч
давл.,
гПа
погр.,
м
3 марта, ср
ср300:00−42с1110028 0.0 102818
03:00−42зсз1110049 0.0 102818
06:00−42с1110069 0.0 102818
09:00−42с1110061 0.0 102918
12:00−36с119543 0.0 102885
15:00−34с118836 0.0 1027174
18:00−37ссв11997 0.0 102819
21:00−40зсз011003 0.0 103019
4 марта, чт
чт400:00−39юз11980 0.0 103119
03:00−39юз22900 0.0 103119
06:00−38юз22860 0.0 103119
09:00−38юз22830 0.0 103219
12:00−32юз22790 0.0 1031103
15:00−29юз33770 0.0 1031210
18:00−32юз33820 0.0 103119
21:00−36юз44770 0.0 103219
5 марта, пт
пт500:00−37юз44780 0.0 103220
03:00−37юз448511 0.0 103121
06:00−37ююз44820 0.0 103122
09:00−37ююз45800 0.0 103027
12:00−31ююз458533 0.0 1028139
15:00−27ююз469367 0.0 1026252
18:00−26ю4694100 0.0 1025247
21:00−27ю4596100 0.1 1025124
6 марта, сб
сб600:00−27ю4596100 0.0 102387
03:00−30ю349897 0.1 102322
06:00−30ю459798 0.0 102243
09:00−30ю449898 0.0 102127
12:00−25ю5795100 0.0 1019251
15:00−23ю5693100 0.1 1018321
18:00−22ю4693100 0.1 1017320
21:00−23ю4695100 0.1 1017157
7 марта, вс
вс700:00−24ю5695100 0.0 1017143
03:00−24ю4696100 0.1 1016108
06:00−23ю5796100 0.1 1015150
09:00−24ю5696100 0.1 1015105
12:00−21ююз5894100 0.0 1013270
15:00−19ююз5794100 0.0 1012291
18:00−21ю4596100 0.0 101164
21:00−21ююз5597100 0.0 101165